CW4167 Weather Reports


Display with metric or nautical units.
time (UTC)temp
F
wind
direction
speed
MPH
gust
MPH
rain 1hr
in
rain 24hr
in
rain mn
in
humidity
%
barometer
mb
20260906234206 56 160 3.0 6.0 0.00 0.00 0.00 85 1019.8
20260906233707 56 162 5.0 6.0 0.00 0.00 0.00 85 1019.8
20260906232705 56 153 5.0 5.0 0.00 0.00 0.00 85 1019.8
20260906231207 55 174 5.0 7.0 0.00 0.00 0.00 85 1019.9
20260906225706 55 163 6.0 7.0 0.00 0.00 0.00 84 1019.8
20260906223706 55 159 6.0 6.0 0.00 0.00 0.00 84 1019.9
20260906222706 55 173 5.0 7.0 0.00 0.00 0.00 84 1019.9
20260906222205 55 164 5.0 7.0 0.00 0.00 0.00 84 1020.0
20260906221705 55 157 6.0 7.0 0.00 0.00 0.00 83 1020.0
20260906220705 55 149 6.0 6.0 0.00 0.00 0.00 83 1020.1
20260906215206 55 156 5.0 7.0 0.00 0.00 0.00 84 1020.2
20260906211708 55 160 6.0 8.0 0.00 0.00 0.00 83 1020.4
20260906210707 56 164 5.0 7.0 0.00 0.00 0.00 83 1020.4
20260906210207 56 163 6.0 6.0 0.00 0.00 0.00 83 1020.5
20260906205705 56 170 5.0 6.0 0.00 0.00 0.00 83 1020.4
20260906204705 56 160 6.0 6.0 0.00 0.00 0.00 83 1020.5
20260906203207 56 170 5.0 6.0 0.00 0.00 0.00 82 1020.5
20260906202705 56 174 6.0 7.0 0.00 0.00 0.00 82 1020.4
20260906202208 56 168 5.0 7.0 0.00 0.00 0.00 82 1020.5
20260906201708 56 165 4.0 6.0 0.00 0.00 0.00 82 1020.5
20260906200207 57 179 5.0 8.0 0.00 0.00 0.00 81 1020.5
20260906195206 57 166 6.0 7.0 0.00 0.00 0.00 81 1020.5
20260906194705 57 158 7.0 7.0 0.00 0.00 0.00 81 1020.6
20260906193705 57 159 6.0 7.0 0.00 0.00 0.00 81 1020.6
20260906193207 57 157 5.0 6.0 0.00 0.00 0.00 81 1020.7
20260906192706 57 157 5.0 5.0 0.00 0.00 0.00 81 1020.6
20260906192206 57 182 4.0 6.0 0.00 0.00 0.00 81 1020.6
20260906191705 57 172 5.0 6.0 0.00 0.00 0.00 80 1020.6
20260906191206 57 179 4.0 6.0 0.00 0.00 0.00 80 1020.7
20260906190706 58 175 5.0 7.0 0.00 0.00 0.00 80 1020.8
20260906190205 58 159 6.0 7.0 0.00 0.00 0.00 79 1020.7
20260906184705 58 170 2.0 5.0 0.00 0.00 0.00 78 1020.7
20260906184205 58 181 2.0 3.0 0.00 0.00 0.00 78 1020.7
20260906183707 58 173 1.0 3.0 0.00 0.00 0.00 77 1020.7
20260906183205 59 179 1.0 2.0 0.00 0.00 0.00 77 1020.7
20260906182706 59 181 0.0 0.0 0.00 0.00 0.00 76 1020.8
20260906181705 60 177 2.0 3.0 0.00 0.00 0.00 75 1020.7
20260906181206 60 179 1.0 3.0 0.00 0.00 0.00 75 1020.7
20260906180705 60 167 2.0 2.0 0.00 0.00 0.00 74 1020.6
20260906172205 62 255 3.0 7.0 0.00 0.00 0.00 70 1020.6
20260906171205 62 265 4.0 7.0 0.00 0.00 0.00 70 1020.7
20260906170205 62 260 3.0 7.0 0.00 0.00 0.00 69 1020.7
20260906165705 62 244 3.0 6.0 0.00 0.00 0.00 69 1020.7
20260906165207 62 274 4.0 8.0 0.00 0.00 0.00 69 1020.7
20260906164207 63 257 5.0 8.0 0.00 0.00 0.00 68 1020.7
20260906163206 63 242 3.0 7.0 0.00 0.00 0.00 67 1020.7
20260906162705 63 247 5.0 7.0 0.00 0.00 0.00 66 1020.7
20260906162205 64 271 6.0 9.0 0.00 0.00 0.00 66 1020.7
20260906155205 64 259 8.0 16.0 0.00 0.00 0.00 65 1020.7
20260906154707 64 277 9.0 15.0 0.00 0.00 0.00 65 1020.7
20260906154206 65 284 9.0 16.0 0.00 0.00 0.00 64 1020.7
20260906151707 67 296 8.0 13.0 0.00 0.00 0.00 63 1020.6
20260906145705 67 272 10.0 17.0 0.00 0.00 0.00 60 1020.4
20260906145205 67 250 13.0 17.0 0.00 0.00 0.00 60 1020.4
20260906144705 67 305 16.0 25.0 0.00 0.00 0.00 59 1020.5
20260906143207 66 289 13.0 22.0 0.00 0.00 0.00 60 1020.6
20260906142706 66 288 20.0 24.0 0.00 0.00 0.00 60 1020.6
20260906142206 67 281 14.0 22.0 0.00 0.00 0.00 60 1020.6
20260906141205 67 284 14.0 18.0 0.00 0.00 0.00 60 1020.6
20260906140205 66 288 13.0 23.0 0.00 0.00 0.00 60 1020.6
20260906135205 67 262 16.0 25.0 0.00 0.00 0.00 59 1020.6
20260906134705 67 261 15.0 21.0 0.00 0.00 0.00 61 1020.5
20260906134206 66 292 12.0 17.0 0.00 0.00 0.00 62 1020.5
20260906133207 66 297 13.0 20.0 0.00 0.00 0.00 61 1020.5
20260906132707 66 307 13.0 20.0 0.00 0.00 0.00 62 1020.5
20260906131705 66 286 13.0 18.0 0.00 0.00 0.00 62 1020.5
20260906130705 66 271 13.0 20.0 0.00 0.00 0.00 62 1020.6
20260906125204 65 291 10.0 23.0 0.00 0.00 0.00 64 1020.6
20260906124705 65 286 12.0 21.0 0.00 0.00 0.00 63 1020.6
20260906124205 65 284 9.0 20.0 0.00 0.00 0.00 63 1020.7
20260906123706 65 292 17.0 22.0 0.00 0.00 0.00 62 1020.7
20260906123205 65 291 20.0 26.0 0.00 0.00 0.00 61 1020.7
20260906122705 65 287 16.0 24.0 0.00 0.00 0.00 62 1020.6
20260906122207 65 284 16.0 26.0 0.00 0.00 0.00 62 1020.6
20260906121705 65 265 16.0 23.0 0.00 0.00 0.00 62 1020.7
20260906120207 65 274 13.0 20.0 0.00 0.00 0.00 63 1020.7
20260906115707 65 287 18.0 22.0 0.00 0.00 0.00 62 1020.6
20260906114707 65 245 16.0 22.0 0.00 0.00 0.00 61 1020.6
20260906113706 65 267 12.0 22.0 0.00 0.00 0.00 63 1020.6
20260906113208 65 276 16.0 23.0 0.00 0.00 0.00 65 1020.4
20260906112706 64 298 13.0 25.0 0.00 0.00 0.00 65 1020.5
20260906111707 64 267 14.0 24.0 0.00 0.00 0.00 66 1020.5
20260906111207 64 303 15.0 24.0 0.00 0.00 0.00 67 1020.4
20260906104207 64 296 19.0 25.0 0.00 0.00 0.00 67 1020.1
20260906102707 64 283 17.0 22.0 0.00 0.00 0.00 68 1020.0
20260906101706 63 295 18.0 25.0 0.00 0.00 0.00 70 1019.7
20260906100207 63 280 16.0 20.0 0.00 0.00 0.00 71 1019.7
20260906094207 63 274 11.0 22.0 0.00 0.00 0.00 71 1019.6
20260906093207 62 276 14.0 24.0 0.00 0.00 0.00 71 1019.2
20260906090707 62 277 16.0 23.0 0.00 0.00 0.00 70 1019.1
20260906085707 62 285 16.0 28.0 0.00 0.00 0.00 71 1019.1
20260906084706 62 286 17.0 29.0 0.00 0.00 0.00 71 1019.2
20260906084207 62 288 17.0 32.0 0.00 0.00 0.00 72 1019.1
20260906082707 61 294 14.0 22.0 0.00 0.00 0.00 73 1019.0
20260906081706 61 287 18.0 25.0 0.00 0.00 0.00 73 1018.9
20260906081207 61 293 17.0 25.0 0.00 0.00 0.00 74 1018.9
20260906080706 61 298 21.0 28.0 0.00 0.00 0.00 72 1018.8
20260906075207 61 291 18.0 26.0 0.00 0.00 0.00 74 1018.6
20260906074708 61 297 22.0 26.0 0.00 0.00 0.00 74 1018.4
20260906074209 61 298 24.0 33.0 0.00 0.00 0.00 74 1018.4
20260906073706 61 278 17.0 25.0 0.00 0.00 0.00 75 1018.4
20260906073206 60 292 18.0 26.0 0.00 0.00 0.00 75 1018.4
20260906072706 60 289 16.0 24.0 0.00 0.00 0.00 76 1018.3
20260906065709 60 289 14.0 20.0 0.00 0.00 0.00 78 1018.3
20260906064206 59 266 13.0 21.0 0.00 0.00 0.00 79 1017.9
20260906063206 58 275 15.0 24.0 0.00 0.00 0.00 80 1017.9
20260906062706 58 284 10.0 22.0 0.00 0.00 0.00 81 1017.8
20260906061707 58 281 13.0 21.0 0.00 0.00 0.00 81 1017.8
20260906060707 57 283 12.0 21.0 0.00 0.00 0.00 82 1017.6
20260906053706 57 293 9.0 16.0 0.00 0.00 0.00 83 1017.3
20260906051212 56 286 10.0 17.0 0.00 0.00 0.00 84 1017.1
20260906045706 56 275 7.0 18.0 0.00 0.00 0.00 83 1016.9
20260906045208 56 276 14.0 20.0 0.00 0.00 0.00 83 1016.8
20260906043706 56 276 12.0 20.0 0.00 0.01 0.00 83 1016.5
20260906043206 56 280 13.0 17.0 0.00 0.01 0.00 83 1016.5
20260906041708 56 289 12.0 16.0 0.00 0.01 0.00 83 1016.2
20260906041206 56 275 14.0 21.0 0.00 0.01 0.00 83 1016.2
20260906040706 56 296 13.0 21.0 0.00 0.01 0.00 83 1016.2
20260906040208 55 278 13.0 18.0 0.00 0.01 0.00 83 1016.1
20260906035707 55 289 13.0 20.0 0.00 0.01 0.00 83 1015.9
20260906033706 55 278 9.0 16.0 0.00 0.01 0.00 83 1015.7
20260906031707 56 286 11.0 18.0 0.00 0.01 0.00 82 1015.5
20260906031207 56 295 14.0 18.0 0.00 0.01 0.00 82 1015.5
20260906025709 56 290 14.0 20.0 0.00 0.01 0.00 82 1015.2
20260906022705 56 285 13.0 24.0 0.00 0.01 0.00 81 1014.7
20260906021707 56 293 13.0 24.0 0.00 0.01 0.00 80 1014.7
20260906021206 56 281 16.0 22.0 0.00 0.01 0.00 80 1014.7
20260906020206 56 290 17.0 24.0 0.00 0.01 0.00 80 1014.7
20260906015207 57 296 16.0 21.0 0.00 0.01 0.00 79 1014.6
20260906014708 57 280 15.0 24.0 0.00 0.01 0.00 79 1014.6
20260906014208 57 281 20.0 25.0 0.00 0.01 0.00 79 1014.6
20260906013706 57 282 13.0 24.0 0.00 0.01 0.00 79 1014.6
20260906012707 57 290 17.0 28.0 0.00 0.01 0.00 79 1014.5
20260906012207 57 288 14.0 23.0 0.00 0.01 0.00 79 1014.3
20260906010705 57 278 16.0 30.0 0.00 0.01 0.00 79 1014.0
20260906005206 57 288 21.0 28.0 0.00 0.01 0.00 79 1014.0
20260906004207 57 293 17.0 25.0 0.00 0.01 0.00 79 1013.9
20260906003707 57 283 23.0 30.0 0.00 0.01 0.00 79 1013.9
20260906003205 57 290 21.0 36.0 0.00 0.02 0.00 79 1013.9
20260906002705 57 290 21.0 31.0 0.00 0.02 0.00 79 1013.8
20260906001707 57 285 18.0 29.0 0.00 0.02 0.00 79 1013.5
20260906001206 57 286 21.0 29.0 0.00 0.02 0.00 79 1013.5
20260905235707 57 282 15.0 30.0 0.00 0.05 0.00 79 1013.4
20260905235208 57 296 16.0 25.0 0.00 0.06 0.00 79 1013.1